| time (UTC) | temp F | wind direction | speed MPH | gust MPH | rain 1hr in | rain 24hr in | rain mn in | humidity % | barometer mb |
| 20260507112330 | 51 | 73 | 6.0 | 11.0 | 0.00 | 0.00 | 0.00 | 71 | 1024.7 |
| 20260507105329 | 51 | 80 | 7.0 | 15.0 | 0.00 | 0.00 | 0.00 | 71 | 1024.6 |
| 20260507102330 | 52 | 80 | 8.0 | 16.0 | 0.00 | 0.00 | 0.00 | 70 | 1024.7 |
| 20260507095330 | 53 | 70 | 7.0 | 14.0 | 0.00 | 0.00 | 0.00 | 68 | 1024.5 |
| 20260507085329 | 54 | 69 | 7.0 | 12.0 | 0.00 | 0.00 | 0.00 | 65 | 1024.1 |
| 20260507082329 | 55 | 67 | 7.0 | 14.0 | 0.00 | 0.00 | 0.00 | 63 | 1023.9 |
| 20260507075329 | 56 | 60 | 6.0 | 12.0 | 0.00 | 0.00 | 0.00 | 62 | 1023.8 |
| 20260507072330 | 57 | 81 | 9.0 | 16.0 | 0.00 | 0.00 | 0.00 | 62 | 1023.1 |
| 20260507065329 | 57 | 59 | 7.0 | 12.0 | 0.00 | 0.00 | 0.00 | 63 | 1023.4 |
| 20260507062329 | 58 | 94 | 6.0 | 10.0 | 0.00 | 0.00 | 0.00 | 61 | 1022.3 |
| 20260507055330 | 59 | 128 | 6.0 | 12.0 | 0.00 | 0.00 | 0.00 | 58 | 1021.8 |
| 20260507052329 | 61 | 141 | 8.0 | 15.0 | 0.00 | 0.00 | 0.00 | 56 | 1021.6 |
| 20260507045330 | 62 | 128 | 7.0 | 13.0 | 0.00 | 0.00 | 0.00 | 55 | 1021.2 |
| 20260507035331 | 65 | 121 | 7.0 | 13.0 | 0.00 | 0.00 | 0.00 | 52 | 1020.1 |
| 20260507022329 | 69 | 129 | 6.0 | 11.0 | 0.00 | 0.00 | 0.00 | 43 | 1018.3 |
| 20260507015330 | 71 | 128 | 5.0 | 10.0 | 0.00 | 0.00 | 0.00 | 41 | 1018.0 |
| 20260507012330 | 73 | 137 | 5.0 | 10.0 | 0.00 | 0.00 | 0.00 | 38 | 1017.6 |
| 20260507005329 | 74 | 133 | 6.0 | 13.0 | 0.00 | 0.00 | 0.00 | 37 | 1017.2 |
| 20260507002329 | 75 | 143 | 7.0 | 14.0 | 0.00 | 0.00 | 0.00 | 36 | 1017.0 |
| 20260506235330 | 76 | 133 | 7.0 | 14.0 | 0.00 | 0.00 | 0.00 | 35 | 1016.9 |
| 20260506232330 | 77 | 117 | 9.0 | 16.0 | 0.00 | 0.00 | 0.00 | 35 | 1017.1 |
| 20260506222330 | 79 | 96 | 8.0 | 17.0 | 0.00 | 0.00 | 0.00 | 34 | 1016.6 |
| 20260506215330 | 79 | 98 | 6.0 | 14.0 | 0.00 | 0.00 | 0.00 | 32 | 1016.8 |
| 20260506212330 | 80 | 135 | 4.0 | 10.0 | 0.00 | 0.00 | 0.00 | 32 | 1017.6 |
| 20260506205330 | 78 | 136 | 4.0 | 12.0 | 0.00 | 0.00 | 0.00 | 33 | 1018.0 |
| 20260506202329 | 76 | 83 | 4.0 | 12.0 | 0.00 | 0.00 | 0.00 | 34 | 1018.4 |
| 20260506192330 | 74 | 96 | 5.0 | 9.0 | 0.00 | 0.00 | 0.00 | 40 | 1018.8 |
| 20260506185330 | 73 | 111 | 4.0 | 11.0 | 0.00 | 0.00 | 0.00 | 41 | 1019.3 |
| 20260506182330 | 71 | 116 | 4.0 | 11.0 | 0.00 | 0.00 | 0.00 | 44 | 1019.6 |
| 20260506175330 | 68 | 105 | 4.0 | 12.0 | 0.00 | 0.00 | 0.00 | 47 | 1020.0 |